Home > Weather > Newmarket > Past weeks

Flag for Canada Past Weather in Newmarket, Ontario, Canada — Yesterday and Last 2 Weeks

Now
59 °F

Clear.


Feels Like: 59 °F
Forecast: 56 / 84 °F
Wind: No wind

Location: Borden

Current Time: Aug 29, 2016 at 11:17:46 PM

Latest Report: Aug 29, 2016 at 10:00 PM


Visibility: 9 mi

Pressure: 30.22 "Hg

Humidity: 82%

Dew Point: 54 °F

Location of NewmarketLocation

Past Weather in Newmarket — Graph

°F

Newmarket Temperature Yesterday

Maximum temperature yesterday: 84 °F (at 2:00 PM)
Minimum temperature yesterday: 61 °F (at 6:00 AM)
Average temperature yesterday: 72 °F

High & Low Weather Summary for the Past Weeks

 TemperatureHumidityPressure
High88 °F (Aug 20, 3:00 PM)100% (Aug 14, 10:00 PM)30.29 "Hg (Aug 14, 10:00 PM)
Low46 °F (Aug 22, 6:00 AM)36% (Aug 22, 1:00 PM)29.54 "Hg (Aug 21, 4:00 AM)
Average69 °F78%30.02 "Hg
* Reported Aug 14 10:00 PM — Aug 29 10:00 PM, Newmarket, Weather by CustomWeather, © 2016

Note: Actual official high and low records may vary slightly from our data, if they occured in-between our weather recording intervals... More about our weather records

Advertising

Newmarket Weather History for the Previous 24 Hours

Scroll right to see more
 ConditionsComfort  
Time TempWeatherWind HumidityBarometerVisibility
10:00 PM
Mon, Aug 29
59 °FClear.No wind82%30.22 "Hg9 mi
9:00 PM64 °FClear.No wind73%30.22 "Hg9 mi
8:00 PM68 °FSunny.5 mph64%30.21 "Hg9 mi
7:00 PM73 °FSunny.7 mph50%30.22 "Hg9 mi
6:00 PM75 °FSunny.7 mph50%30.22 "Hg9 mi
5:00 PM77 °FSunny.7 mph47%30.23 "Hg9 mi
4:00 PM77 °FSunny.6 mph47%30.24 "Hg9 mi
3:00 PM77 °FSunny.6 mph47%30.25 "Hg9 mi
2:00 PM77 °FScattered clouds.5 mph51%30.26 "Hg9 mi
1:00 PM77 °FPassing clouds.7 mph51%30.27 "Hg9 mi
12:00 PM75 °FSunny.5 mph57%30.27 "Hg9 mi
11:00 AM72 °FSunny.5 mph65%30.29 "Hg9 mi
10:00 AM70 °FPassing clouds.5 mph78%30.27 "Hg9 mi
9:00 AM68 °FSunny.5 mph88%30.27 "Hg9 mi
8:00 AM63 °FSunny.3 mph100%30.25 "Hg9 mi
7:00 AM55 °FClear.2 mph100%30.25 "Hg1 mi
6:59 AM55 °FClear.No wind100%30.25 "Hg1 mi
6:00 AM55 °FClear.3 mph100%30.23 "Hg9 mi
5:00 AM54 °FPassing clouds.No wind100%30.22 "Hg9 mi
4:00 AM55 °FClear.No wind100%30.21 "Hg9 mi
3:00 AM57 °FClear.3 mph88%30.20 "Hg9 mi
2:00 AM57 °FClear.No wind94%30.20 "Hg9 mi
1:00 AM59 °FClear.2 mph94%30.21 "Hg9 mi
12:00 AM63 °FClear.6 mph88%30.20 "Hg9 mi
11:00 PM
Sun, Aug 28
66 °FClear.5 mph78%30.19 "Hg9 mi
Weather by CustomWeather, © 2016

See weather overviewHow to use our weather pages